Lapse_Rate
6.1 6.0 6.1 5.6 5.7 5.9 6.1 6.5 6.4 6.5 6.6 6.9 7.1 7.1 7.0 6.9 6.8 6.6 6.5 6.1 5.9 5.9 5.4 5.3 5.2 5.3 5.3 5.4 5.8 5.7 5.7 5.7 5.7 5.7 5.8 5.7 5.4 5.6 5.5 5.6 5.7 5.6 5.5 5.8
6.1 6.2 6.5 6.0 5.8 5.9 6.1 6.4 6.5 6.5 6.5 6.8 7.2 7.4 7.7 7.7 7.4 7.0 6.9 6.5 5.9 5.8 5.6 5.2 5.3 5.4 5.6 5.1 5.3 5.6 5.7 5.9 5.5 5.4 5.5 5.5 5.6 5.6 5.7 5.8 5.7 5.6 5.5 5.5
5.7 6.6 6.3 5.8 5.9 5.9 6.1 6.3 6.5 6.5 6.4 6.7 7.2 7.5 7.9 7.8 7.9 7.5 6.9 6.6 6.4 6.0 5.9 5.5 5.5 5.6 5.5 5.3 4.9 5.2 5.2 5.7 5.8 5.6 5.8 5.7 5.7 5.9 5.9 5.8 5.8 5.7 5.5 5.3
5.6 6.1 6.1 5.9 5.9 6.0 6.3 6.3 6.4 6.4 6.3 6.9 7.0 8.1 7.8 7.8 7.9 7.6 7.2 7.2 7.0 6.6 6.4 6.0 5.5 5.7 5.7 5.5 5.2 5.1 5.0 5.3 5.8 6.0 5.9 5.9 5.4 5.4 5.6 5.8 5.9 5.8 5.6 5.4
5.8 6.1 5.8 5.8 6.0 6.2 6.4 6.4 6.5 6.5 6.3 6.4 6.8 7.7 7.9 7.8 7.9 7.8 7.3 7.3 7.5 7.4 7.0 6.7 6.3 5.9 5.7 5.5 5.3 5.2 4.9 5.0 5.4 6.0 5.9 5.9 6.0 5.7 5.6 5.7 6.1 6.0 5.8 5.7
6.2 6.1 6.0 6.0 6.2 6.4 6.5 6.5 6.6 6.5 6.4 7.0 6.7 7.5 7.1 7.3 7.6 7.8 7.4 7.1 7.1 7.3 7.1 6.8 6.4 6.0 5.8 5.5 5.3 5.2 5.0 5.0 5.2 5.7 6.0 5.8 6.1 6.0 5.6 5.7 5.9 6.2 5.9 5.8
6.3 6.3 6.3 6.2 6.3 6.5 6.5 6.6 6.9 7.1 7.0 7.6 7.1 7.3 6.2 6.7 7.5 7.8 7.7 7.6 7.1 6.8 6.9 6.8 6.6 6.5 5.9 6.0 5.8 5.6 5.2 4.9 5.1 5.4 5.9 6.1 6.1 6.2 6.0 5.7 5.6 6.0 6.1 5.8
6.5 6.3 6.3 6.5 6.5 6.6 6.6 6.8 7.4 7.2 7.3 7.5 7.0 7.2 5.6 6.5 7.1 7.7 7.9 7.8 7.5 7.1 6.7 6.4 6.3 6.5 6.2 6.1 6.0 6.0 5.7 5.3 5.1 5.3 5.6 6.0 6.1 6.2 6.1 6.0 5.6 5.5 5.8 6.0
6.5 6.0 6.1 6.3 6.8 7.0 6.9 6.9 7.1 6.6 6.3 7.8 7.2 6.0 6.2 6.2 7.0 7.3 7.8 7.8 7.7 7.5 7.0 6.7 6.2 6.1 6.3 6.3 6.4 6.2 6.0 5.6 5.3 5.3 5.4 5.7 5.9 6.1 6.1 6.1 5.8 5.6 5.6 5.8
7.0 6.6 6.3 6.2 6.8 7.0 7.0 7.2 7.3 7.1 7.3 7.9 6.7 6.0 5.8 6.4 6.8 7.2 7.4 7.4 7.5 7.6 7.6 7.3 7.1 6.8 7.0 6.4 6.6 6.2 6.0 5.7 5.5 5.1 5.2 5.2 5.8 5.8 5.8 6.0 6.0 5.7 5.5 5.7
7.5 7.4 6.9 6.9 6.7 6.8 6.6 6.8 7.2 7.2 7.0 7.8 7.4 5.9 5.2 5.7 6.0 6.7 7.2 7.3 7.4 7.6 7.5 7.5 7.6 7.5 7.1 7.2 6.6 6.3 6.0 6.0 5.6 5.2 5.1 5.1 5.4 5.8 5.7 6.0 6.0 6.0 5.6 5.6
7.8 7.4 6.9 6.4 6.5 6.8 7.0 7.1 7.0 7.6 6.6 6.4 6.9 5.5 5.0 5.3 5.6 6.1 6.5 7.0 7.2 7.5 7.7 7.8 7.9 8.0 7.7 7.5 7.0 6.6 6.3 6.0 5.8 5.8 5.5 5.3 5.3 5.2 5.5 5.7 5.9 5.9 6.1 5.8
7.8 7.2 6.5 6.3 6.4 6.5 6.5 6.7 6.7 7.0 7.1 6.4 7.6 5.6 5.2 5.1 5.2 5.7 6.1 6.5 6.9 7.1 7.2 7.6 7.9 8.0 7.9 7.9 7.7 7.0 6.4 6.2 6.2 5.8 5.7 5.4 5.3 5.3 5.4 5.6 5.7 5.8 5.9 6.0
7.7 7.3 7.0 7.5 6.9 6.6 6.5 6.6 6.8 6.8 6.6 5.9 6.1 5.4 5.4 5.6 5.4 5.5 6.1 6.2 6.6 6.9 7.1 7.2 7.6 7.9 8.4 8.6 8.2 7.9 7.2 6.4 6.1 6.1 5.9 5.7 5.5 5.5 5.6 5.4 5.2 5.4 5.7 5.9
7.2 7.1 6.6 6.5 6.6 6.6 6.6 6.4 6.3 6.3 6.1 6.2 5.9 5.5 5.6 5.9 6.1 5.8 5.8 5.5 5.7 6.7 6.8 6.9 7.1 7.4 8.0 8.5 8.4 8.1 8.0 7.3 6.7 6.2 6.2 6.0 5.8 5.6 5.5 5.4 5.3 5.2 5.2 5.6
6.6 6.2 6.0 5.7 5.9 6.1 6.1 6.4 6.4 6.4 6.1 5.9 5.8 6.0 6.0 5.9 5.9 5.9 5.7 5.6 5.3 5.1 6.1 6.5 6.7 6.9 7.2 7.7 8.1 8.3 7.9 7.7 7.2 6.8 6.4 6.4 6.2 5.8 5.7 5.7 5.5 5.3 5.3 5.3
6.1 6.1 5.8 5.3 5.7 5.6 5.5 5.6 5.8 5.9 6.3 6.3 5.4 5.9 5.8 5.9 5.8 5.9 5.9 5.7 5.7 5.4 5.0 5.5 5.8 6.3 6.8 6.8 6.9 7.2 7.1 7.3 7.6 7.5 7.1 6.7 6.5 6.2 6.2 6.1 6.0 6.2 6.0 5.7
5.9 5.8 5.6 4.8 5.2 5.9 5.0 5.4 5.3 5.4 5.7 5.8 5.8 6.1 6.0 5.7 5.7 5.9 6.1 5.9 5.8 5.9 5.2 5.0 5.2 5.4 5.8 6.4 6.2 5.9 6.7 6.7 7.0 7.4 7.4 7.2 6.9 6.8 6.7 6.6 6.4 6.4 6.4 6.2
5.3 5.4 5.3 5.0 5.2 4.9 5.0 5.2 5.4 5.4 5.4 5.7 5.6 5.8 6.0 6.0 5.9 5.7 5.7 5.9 5.6 5.5 5.8 5.2 4.9 5.2 5.4 5.6 6.1 5.8 6.0 6.2 6.1 7.1 7.1 7.3 7.3 7.0 7.0 7.1 7.0 6.7 6.4 6.3
5.1 5.3 5.2 5.1 5.4 6.0 5.1 5.4 5.6 5.5 5.2 5.8 5.6 5.5 5.6 5.7 5.6 5.2 5.5 5.3 5.4 5.4 5.4 5.6 5.3 4.9 5.1 5.4 5.4 5.8 5.6 5.9 6.0 6.0 6.8 7.5 7.3 7.1 7.2 7.0 6.7 6.9 6.6 6.5
5.0 5.1 5.2 5.2 5.3 5.2 5.4 5.4 5.3 5.1 5.1 5.4 5.3 5.2 5.2 5.3 5.5 5.6 5.4 5.3 5.3 5.0 5.0 5.2 5.5 5.2 4.8 4.9 5.3 5.3 5.5 5.6 5.3 5.7 5.8 6.3 6.9 7.1 7.2 6.7 6.9 6.8 6.6 6.6
5.5 5.3 5.1 5.1 5.2 5.4 5.6 5.3 4.9 5.4 5.4 5.5 5.5 5.4 5.4 5.4 5.5 5.6 5.6 5.6 5.3 5.1 4.6 4.5 4.6 4.8 4.9 4.8 4.9 5.2 5.3 5.2 5.3 5.5 5.5 5.5 5.8 6.5 6.8 7.3 6.9 6.8 6.6 6.5
5.8 5.9 6.0 6.0 6.0 6.0 5.9 5.6 5.5 5.5 5.4 5.3 5.2 5.1 5.3 5.4 5.3 5.4 5.5 5.7 5.5 5.4 5.4 4.8 4.3 4.2 4.5 4.7 4.7 5.1 5.3 5.4 5.5 5.2 5.2 5.4 5.1 5.4 6.0 6.9 7.4 7.0 6.7 6.6
6.1 6.2 6.1 6.0 6.2 6.0 5.9 5.9 5.9 5.8 5.5 5.4 5.5 5.8 6.0 5.9 5.8 5.6 5.2 5.2 5.4 5.3 5.5 5.5 5.0 4.4 4.3 4.6 4.6 4.8 5.1 5.4 5.5 5.5 5.3 5.2 5.2 5.1 5.6 6.0 6.4 6.9 6.4 6.5
6.3 6.2 6.2 6.1 6.0 6.0 6.1 6.0 5.8 5.5 5.3 5.4 5.8 5.9 6.0 6.0 6.1 6.0 5.6 5.1 5.0 5.2 5.4 5.4 5.7 5.2 5.1 5.0 4.8 4.8 4.9 5.2 5.6 5.6 5.8 5.6 5.6 5.3 5.1 5.5 6.0 6.1 6.1 6.2
6.5 6.5 6.3 6.2 5.9 5.7 5.7 5.6 5.6 5.2 5.2 5.5 5.6 5.7 5.9 5.7 5.7 6.0 6.1 5.5 5.2 5.5 5.7 5.8 5.7 6.4 6.2 6.4 5.6 5.3 5.0 5.2 5.4 5.7 5.8 6.0 5.8 5.7 5.3 5.3 5.3 5.6 5.6 5.6
Wind_Speed
7 7 13 13 7 2 6 6 9 3 3 4 7 7 6 12 12 14 17 18 18 19 18 16 15 14 13 12 12 13 14 12 9 7 6 6 6 6 5 6 6 6 5 9
7 13 10 9 7 5 7 7 5 2 3 3 1 1 2 7 12 15 18 19 19 18 17 16 15 14 15 15 15 14 14 13 11 8 6 4 5 4 4 6 7 7 7 5
10 6 10 10 9 9 5 8 5 3 1 3 1 4 2 2 6 11 16 16 18 19 19 17 16 16 15 15 15 15 15 14 12 11 6 3 4 3 4 6 5 8 8 7
7 6 13 11 10 10 10 7 5 3 2 4 3 5 2 1 8 11 15 18 18 20 18 18 18 18 18 18 16 15 14 14 12 12 9 9 7 6 6 6 6 7 8 7
5 12 15 12 12 9 4 7 7 4 3 3 3 4 3 2 4 10 13 16 20 20 21 21 22 20 18 18 18 17 16 14 13 12 11 9 9 6 5 6 8 6 8 8
3 2 6 11 7 12 11 8 6 4 2 6 4 4 6 7 13 14 9 16 17 20 20 19 19 18 17 18 18 16 16 15 14 13 13 13 12 9 6 7 7 7 6 6
3 2 2 3 8 6 7 9 5 6 5 6 2 4 6 9 14 15 9 10 17 18 19 18 19 18 18 18 19 17 16 16 16 16 15 15 14 11 10 10 8 8 7 6
5 7 5 7 2 5 14 12 5 8 9 8 2 8 5 8 13 16 16 7 6 15 15 17 18 19 19 19 19 19 17 17 17 17 16 14 14 10 9 10 8 7 7 8
4 4 3 8 7 2 6 8 2 5 1 8 6 5 6 13 17 19 17 15 13 6 11 17 18 19 20 20 20 20 18 17 17 19 14 14 13 13 12 11 10 8 7 6
2 6 6 5 1 11 2 5 6 2 8 10 5 5 3 12 15 16 18 17 15 13 10 9 16 19 19 22 21 21 20 18 19 19 16 15 16 15 13 11 11 10 9 8
2 1 3 2 8 7 1 3 4 2 2 6 8 4 4 6 9 12 14 16 17 16 14 11 12 15 18 19 20 21 21 20 19 18 16 15 15 15 14 13 13 12 10 9
4 4 5 5 2 4 6 3 1 7 6 2 0 5 7 7 10 11 13 15 15 16 16 15 12 8 13 16 19 20 19 19 20 18 16 17 15 15 15 15 15 14 13 10
3 3 5 2 2 1 4 4 3 2 1 4 7 6 7 9 11 12 13 15 16 17 19 18 17 14 10 10 14 17 17 19 18 16 15 16 17 16 16 15 14 14 13 13
2 4 3 1 4 3 3 1 4 3 3 7 2 11 7 11 12 12 14 14 16 18 19 17 17 16 14 11 7 13 15 15 14 16 17 16 16 16 17 15 14 14 13 13
3 4 5 7 5 2 2 2 3 3 3 2 8 5 7 9 10 10 10 12 16 18 20 18 17 16 15 16 11 6 12 13 14 15 16 16 15 15 14 13 14 15 14 13
4 4 5 3 3 3 2 3 4 5 2 3 3 1 6 4 6 10 12 12 14 15 18 20 20 20 17 16 16 10 5 11 13 15 16 14 14 15 14 15 15 14 15 14
3 4 2 4 3 1 3 0 3 1 2 2 4 4 8 6 9 11 9 11 12 14 16 17 19 19 17 16 15 15 9 3 9 12 13 14 14 14 14 14 14 15 15 14
4 4 1 4 4 5 5 4 3 3 6 6 5 6 7 11 12 9 5 11 14 15 16 16 16 18 19 17 15 14 13 8 4 6 9 11 12 13 14 15 15 14 14 14
2 4 3 4 5 2 2 1 2 1 2 5 3 5 8 12 12 7 4 13 14 14 13 13 14 16 17 17 16 12 11 9 6 3 1 5 7 13 13 15 15 14 12 14
5 4 1 3 3 6 5 6 3 5 4 2 4 6 9 10 6 1 12 19 18 16 14 15 17 15 13 16 15 15 11 9 7 7 5 4 2 3 7 13 14 13 12 13
3 2 3 4 3 2 5 4 4 4 4 2 4 6 7 7 7 17 20 19 16 15 18 17 15 14 13 13 15 14 13 11 12 10 8 5 6 5 6 8 5 10 11 12
5 5 3 2 3 5 8 6 5 4 3 2 4 6 9 11 14 16 18 19 20 19 17 15 15 15 14 12 12 13 11 10 10 12 13 9 6 5 5 7 8 7 10 12
4 3 3 6 2 2 6 2 5 3 3 5 5 6 8 11 14 16 16 19 18 20 16 15 13 16 16 13 12 12 12 11 9 10 13 14 11 7 5 4 7 7 7 8
5 4 2 2 7 9 7 5 4 3 1 2 5 7 7 11 16 19 16 16 17 18 17 15 16 16 17 11 12 13 10 9 10 11 10 12 11 10 5 4 5 6 7 9
1 9 6 4 5 2 6 9 5 9 9 7 7 7 9 8 15 14 14 16 17 18 16 16 16 16 17 13 13 13 11 8 9 10 10 10 10 11 9 4 5 7 8 8
7 7 6 4 7 6 5 13 13 13 10 8 7 8 7 9 13 14 12 12 14 17 17 18 17 16 17 15 14 11 9 7 9 10 8 6 8 10 8 8 4 9 14 19
Wind_Direction
163 188 196 185 186 120 138 143 131 115 158 233 233 272 228 176 177 180 186 186 187 195 200 202 202 192 189 195 198 201 195 194 187 189 194 203 207 201 206 196 187 193 230 170
159 210 185 184 196 188 154 151 153 129 122 240 359 23 5 200 196 185 186 189 191 191 192 204 205 197 193 197 200 204 204 193 198 191 202 221 204 191 178 173 174 191 212 183
188 196 172 186 185 188 184 181 175 145 140 119 348 161 255 179 207 194 195 197 196 196 193 198 199 200 200 200 202 204 206 198 199 198 185 161 162 140 166 166 173 182 186 194
204 187 175 182 183 192 200 191 167 157 195 181 330 200 124 217 206 199 197 201 201 200 202 201 201 202 202 204 208 207 207 207 204 191 193 197 201 199 202 178 170 171 180 182
155 175 182 188 194 189 194 165 185 174 168 233 139 235 87 24 252 223 209 208 207 205 202 205 204 205 207 204 204 207 205 206 206 200 200 200 212 213 197 182 170 170 176 183
113 85 192 207 181 187 144 107 81 89 167 199 149 250 51 12 338 313 255 211 206 208 208 211 209 205 210 205 205 207 205 206 205 202 204 206 207 205 203 198 193 183 183 176
123 62 48 21 162 156 176 171 150 176 193 188 181 204 53 12 6 350 291 239 214 208 204 206 206 206 210 207 206 204 202 204 203 204 207 213 216 210 207 199 202 185 182 188
162 157 17 358 25 189 190 200 205 185 187 164 148 166 73 26 22 26 34 12 259 224 213 212 208 205 208 209 208 205 199 204 203 204 206 211 214 219 222 213 208 208 207 199
137 116 338 42 28 320 148 200 53 112 86 178 150 108 193 23 25 24 25 27 25 340 246 226 222 214 210 207 205 204 205 204 202 206 203 205 214 216 220 224 216 212 214 209
116 130 21 9 312 51 4 115 172 205 164 178 134 124 69 8 9 12 17 16 9 2 345 288 243 227 217 214 207 202 203 204 203 204 202 205 211 213 213 218 222 217 214 212
19 326 60 31 29 3 39 123 64 112 320 182 168 123 39 34 30 18 20 15 17 11 3 338 282 244 233 217 212 208 206 203 204 208 208 208 207 213 211 215 217 221 219 207
22 74 66 96 12 340 48 81 347 215 182 72 358 118 54 49 41 34 26 19 15 14 9 7 2 260 235 220 216 212 209 209 212 206 202 208 209 206 215 215 216 216 221 216
7 50 123 144 225 130 46 39 71 89 58 173 197 134 77 59 46 32 26 20 23 22 23 19 24 25 350 261 224 218 216 216 214 212 210 210 209 209 212 219 215 216 217 219
74 80 359 154 73 87 141 46 34 5 210 150 84 138 67 44 41 26 17 19 27 25 25 23 18 15 7 357 298 225 217 215 215 215 214 213 212 209 213 215 214 212 217 223
38 96 94 72 80 91 164 238 338 353 66 311 133 120 59 39 34 29 24 23 28 20 17 16 17 7 5 2 349 262 232 215 211 211 211 214 212 218 219 214 214 216 213 219
8 112 129 83 61 17 264 253 293 291 294 243 232 222 26 39 33 29 24 29 25 15 11 6 11 11 4 358 351 342 277 217 208 214 217 215 214 217 217 218 220 218 221 220
48 129 130 147 14 182 226 197 220 266 43 338 242 54 356 12 5 1 16 23 21 7 4 2 358 1 2 359 347 346 341 294 230 226 224 221 221 222 224 221 220 220 221 223
125 104 71 137 150 211 84 41 13 230 62 43 105 48 10 342 328 311 81 24 9 359 354 354 352 350 346 352 355 343 351 16 17 260 251 247 239 232 229 226 224 222 224 224
22 128 117 177 193 82 191 57 58 46 127 31 27 7 357 342 317 158 73 6 350 342 340 336 338 339 336 342 347 344 343 347 17 25 323 349 286 239 237 234 234 229 225 226
77 77 176 177 206 203 112 148 162 169 234 119 5 355 347 346 303 280 343 337 333 329 328 331 330 326 333 332 339 338 333 336 342 347 335 325 304 298 263 247 238 238 230 232
128 91 187 182 237 221 147 144 158 221 79 15 330 330 324 309 298 303 309 312 316 316 318 323 320 316 317 322 322 325 326 322 330 324 314 305 301 273 256 257 261 245 235 231
178 159 177 179 221 236 155 154 227 65 86 3 353 341 325 321 314 308 305 306 309 310 313 314 309 307 308 313 311 307 307 313 318 318 312 302 287 283 281 275 256 256 237 232
206 214 184 208 213 119 167 157 132 125 60 23 356 332 322 317 324 319 308 304 305 305 304 305 300 299 297 298 298 289 298 311 312 311 303 304 302 287 286 299 295 270 247 239
214 182 227 208 194 208 206 189 179 165 93 267 281 299 310 303 316 319 311 306 305 302 302 302 298 290 289 290 293 280 288 298 303 302 298 298 296 292 279 286 281 276 272 247
179 166 189 250 248 190 236 215 221 217 235 257 275 273 284 291 309 315 309 306 302 299 295 300 296 288 286 287 282 276 278 284 289 293 298 300 300 295 293 271 275 289 275 266
193 180 187 215 193 183 214 205 211 215 234 256 282 295 306 315 314 313 309 304 301 300 298 296 289 280 277 280 276 261 264 274 288 290 284 281 297 301 297 290 304 258 256 263